FIREFLY

Last updated on Nov. 2, 2017, 12:19 a.m. UTC

1 39404U 13064AA  17304.93805027  .14819696  74099-5  47644-3 0  9999
2 39404  40.4789 145.0538 0001854 314.5146  47.1024 16.45154788222993

Satellite is not in orbit.